This is the latest recevied weather packets stored in our database for station/object W5CRT. If no packets are shown the sender has not sent any weather packets the latest 10 day(s).
| Time | Temp. | Humidity | Pressure | Rain* | Wind** | Luminosity | Snow |
|---|---|---|---|---|---|---|---|
| 1778017723 | 31.67° C | 57% | 1002.7 hPa | 0 mm | - | 707 W/m² | - |
| 1778017420 | 32.22° C | 57% | 1002.6 hPa | 0 mm | - | 729 W/m² | - |
| 1778017117 | 31.11° C | 58% | 1002.4 hPa | 0 mm | - | 737 W/m² | - |
| 1778016815 | 31.67° C | 57% | 1002.6 hPa | 0 mm | - | 255 W/m² | - |
| 1778016511 | 31.67° C | 57% | 1002.5 hPa | 0 mm | - | 702 W/m² | - |
| 1778016208 | 31.67° C | 56% | 1002.8 hPa | 0 mm | - | 820 W/m² | - |
| 1778015904 | 31.67° C | 57% | 1002.8 hPa | 0 mm | - | 800 W/m² | - |
| 1778015602 | 31.11° C | 59% | 1002.8 hPa | 0 mm | - | 820 W/m² | - |
| 1778015298 | 31.11° C | 60% | 1002.8 hPa | 0 mm | - | 846 W/m² | - |
| 1778014995 | 31.11° C | 59% | 1002.7 hPa | 0 mm | - | 802 W/m² | - |
| 1778014692 | 31.11° C | 59% | 1002.8 hPa | 0 mm | - | 913 W/m² | - |
| 1778014391 | 31.11° C | 60% | 1002.7 hPa | 0 mm | - | 888 W/m² | - |
| 1778014087 | 31.11° C | 60% | 1003.1 hPa | 0 mm | - | 948 W/m² | - |
| 1778013785 | 31.11° C | 59% | 1003.2 hPa | 0 mm | - | 948 W/m² | - |
| 1778013482 | 31.11° C | 59% | 1003.3 hPa | 0 mm | - | 849 W/m² | - |
| 1778013179 | 30.56° C | 61% | 1003.1 hPa | 0 mm | - | 965 W/m² | - |
| 1778012875 | 30.56° C | 60% | 1003.3 hPa | 0 mm | - | 957 W/m² | - |
| 1778012571 | 30.56° C | 61% | 1003.1 hPa | 0 mm | - | 909 W/m² | - |
| 1778012267 | 30° C | 62% | 1002.9 hPa | 0 mm | - | 988 W/m² | - |
| 1778011965 | 30.56° C | 61% | 1003.1 hPa | 0 mm | - | 940 W/m² | - |
| 1778011664 | 30.56° C | 61% | 1003.4 hPa | 0 mm | - | 860 W/m² | - |
| 1778011360 | 30.56° C | 63% | 1003.4 hPa | 0 mm | - | 1042 W/m² | - |
| 1778011055 | 30° C | 63% | 1003.1 hPa | 0 mm | - | 1035 W/m² | - |
| 1778010753 | 30° C | 63% | 1003.4 hPa | 0 mm | - | 938 W/m² | - |
| 1778010450 | 29.44° C | 65% | 1003.5 hPa | 0 mm | - | 865 W/m² | - |
* Rain latest hour (hover to see other rain measurements)
** Current wind speed in m/s (hover to see current wind gust speed)